Location: C.E.K. Mees Observatory
(42.7003°N, 77.4088°W)
Time: 03:54:38
(UTC-04:00)

Envisat - Pass Details

Date: 08 October 2017
Orbit: 764 x 766 km, 98.2° (Epoch: 16 October)

Event Time Altitude Azimuth Distance (km) Brightness Sun altitude
Exits shadow 20:41:25 61° 105° (ESE) 867 2.9 -23.3°
Maximum altitude 20:41:55 65° 74° (ENE) 841 2.9 -23.4°
Drops below altitude 10° 20:46:57 10° 353° (N) 2,310 5.7 -24.3°
Sets 20:49:16 0° 350° (N) 3,240 6.6 -24.7°
